Weather in Noviy Urengoy

Russia / Yamalo-Nenets Autonomous Okrug     66°05′02″N   76°40′51″E
В апреле 2022 года жителям России запретили посещать сайт meteo.paraplan.net по решению Генеральной прокуратуры. Аудитория сайта уменьшилась в 10 раз. Владельцы сайта не видят смысла в поддержке погодного сервера в таких условиях. Сайт будет закрыт в октябре.
temp.,
°C
wind,
m/s
gust,
m/s
humid.,
%
clouds,
%
prec.,
mm/h
press.,
hPa
HPBL,
m
6 october, thu
thu623:00+2n3467100 0.0 1028141
02:00+1n1169100 0.0 102812
05:000sw117131 0.0 102810
08:000ssw347583 0.0 1028149
11:00+2ssw456788 0.0 1027548
14:00+3ssw566699 0.0 1026598
17:00+2s5977100 0.0 1025301
20:00+2s6127998 0.0 1023341
7 october, fri
fri723:00+2s61279100 0.0 1021346
02:00+2s61281100 0.0 1019342
05:00+2sse71285100 0.1 1017391
08:00+1sse71195100 1.0 1014351
11:00+1sse61197100 2.6 1011497
14:00+2sse61198100 0.8 1009367
17:00+3s71296100 2.1 1006402
20:00+3sse51095100 1.0 1005302
8 october, sat
sat823:00+4sse5996100 1.6 1002271
02:00+4s4997100 0.8 1001275
05:00+3s4797100 1.3 999275
08:00+3sw3599100 0.6 999619
11:00+3wsw4798100 1.3 999600
14:00+4w5993100 0.3 1001554
17:00+4wsw3794100 0.3 1002228
20:00+4sw359699 0.3 1003133
9 october, sun
sun923:00+4sw239582 0.3 100449
02:00+4s2394100 0.1 100443
05:00+4s2498100 0.8 100499
08:00+4wsw3492100 0.2 100499
11:00+5w369093 0.4 1005368
14:00+6ssw3581100 0.0 1005392
17:00+5ssw358996 0.2 1006138
20:00+4ssw359190 0.1 100674
10 october, mon
mon1023:00+4sw4790100 0.1 1006179
02:00+3ssw469117 0.0 1005111
05:00+2s4992100 0.0 1005189
08:00+3s61190100 0.2 1003415
11:00+4ssw61094100 0.6 1002303
14:00+5ssw61097100 0.7 1001398
17:00+5sw51097100 1.8 1000385
20:00+4wsw4797100 0.5 1000281